STARLINK-35568

Last updated on Tue Dec 16 2025 00:02:05 GMT+0000 (Coordinated Universal Time)

1 66473U 25262T 25349.20278065 .00050438 00000+0 12062-2 0 9998 2 66473 43.0008 56.9033 0001400 264.9878 95.0819 15.40713546 5944
UTC large
Height (km)
Speed (km/s)
/
Latitude / Longitude
Inclination (degrees)
Orbital Period (minutes)
Azimuth
Elevation
Range (km)
Doppler Factor

Next 0 passes for location: London (51.5072 / 0.1276)

Sorry there are no passes over London.